www.pogodaiklimat.ru
ПОГОДА в Брукингсе
Время
и дата
05:56 27.05
06:08 27.05
06:20 27.05
06:30 27.05
06:44 27.05
06:56 27.05
07:56 27.05
08:52 27.05
08:56 27.05
09:56 27.05
10:37 27.05
10:56 27.05
11:23 27.05
11:56 27.05
12:56 27.05
13:56 27.05
14:56 27.05
15:56 27.05
16:56 27.05
17:56 27.05
18:56 27.05
19:48 27.05
19:56 27.05
20:14 27.05
20:56 27.05
21:50 27.05
21:56 27.05
22:56 27.05
23:56 27.05
00:56 28.05
01:40 28.05
01:56 28.05
02:30 28.05
02:43 28.05
02:56 28.05
03:39 28.05
03:52 28.05
03:56 28.05
04:08 28.05
04:23 28.05
04:48 28.05
04:56 28.05
05:56 28.05
06:56 28.05
07:56 28.05
08:09 28.05
08:28 28.05
08:56 28.05
Ветер
(напр.,м/с)
Видим. Явления Облачность Т
(С)
Тd
(С)
f
(%)
Тe
(С)
Тes
(С)
Комфортность P
(гПа)
Po
(гПа)
Тmin
(С)
Tmax
(С)
R
(мм)
R24
(мм)
S
(см)
ЮВ 2 1 км слабый дождь, дымка 10/10 90 m
[Ns]
+8.3 +8.3 100 +6 +6 1020.0 1003.0
ЮВ 2 800 м туман 10/10 90 м +8.0 +8.0 100 +6 +6 1003.0
ЮВ 3 2 км дымка 10/10 90 м +8.0 +8.0 100 +5 +5 1003.0
В 2 3 км дымка 10/10 90 м +8.0 +8.0 100 +6 +6 1003.4
штиль 0 16 км 10/10 90 м +8.0 +8.0 100 +7 +7 1003.4
16 км 10/10 90 м +8.9 +8.9 100 +8 +8
нст 2 16 км 10/10 90 м +10.0 +9.4 96 +8 +8 1020.8 1003.7
Ю 2 16 км 10/10 150 м +11.0 +9.0 87 +10 +10 1003.7
штиль 0 16 км 10/10 150 м +11.1 +9.4 89 +10 +10 1020.7 1003.7
нст 2 16 км 10/10 150 м +10.6 +9.4 92 +9 +9 1020.7 1003.7 +6.7 +11.1
16 км 10/10 210 м +12.0 +9.0 82 +11 +11
штиль 0 16 км 10/10 270 м +12.2 +10.0 86 +12 +12 1020.2 1003.0
З 3 16 км 2/2 330 м +14.0 +10.0 77 +13 +25 опасность
простуды
1003.0
Ю 2 16 км ясно +13.9 +10.0 77 +13 +31 опасность
простуды
1019.8 1002.7
ЮВ 4 16 км ясно +14.4 +10.0 75 +13 +26 опасность
простуды
1019.6 1002.7
нст 3 16 км ясно +16.7 +10.0 65 +17 +32 опасность
простуды
1019.1 1002.0
З 3 16 км ясно +17.2 +10.6 65 +17 +31 опасность
простуды
1018.9 1002.0
нст 3 16 км ясно +16.1 +10.6 70 +16 +27 1018.8 1002.0 +10.6 +17.2
ЮВ 5 16 км ясно +15.6 +10.0 69 +14 +19 1018.8 1001.7
Ю 4 16 км ясно +13.9 +10.0 77 +12 +16 1019.3 1002.4
Ю 2 16 км ясно +12.8 +10.0 83 +12 +14 1019.6 1002.7
ЮВ 2 16 км 8/8 210 м +11.0 +10.0 94 +10 +10 1002.7
нст 2 16 км 8/8 210 м +10.6 +10.0 96 +9 +9 1020.0 1002.7
штиль 0 16 км 10/10 150 м +11.0 +11.0 100 +10 +10 1002.7
штиль 0 16 км 10/10 150 м +10.6 +10.6 100 +10 +10 1020.3 1003.4
штиль 0 16 км 10/10 90 м +11.0 +11.0 100 +10 +10 1003.4
штиль 0 16 км 10/10 90 м +10.6 +10.6 100 +10 +10 1020.4 1003.4 +10.6 +16.7
З 2 11 км 10/10 90 м +10.6 +10.6 100 +9 +9 1020.4 1003.4
штиль 0 6 км дымка 10/10 90 м +10.6 +10.6 100 +10 +10 1020.2 1003.4
штиль 0 10 км дымка 10/10 90 м +10.6 +10.6 100 +10 +10 1020.3 1003.4
ЮВ 2 3 км дымка 10/10 90 м +10.0 +10.0 100 +8 +8 1003.7
штиль 0 3 км дымка 10/10 90 м +10.0 +10.0 100 +9 +9 1020.4 1003.4
штиль 0 4 км слабый дождь, дымка 10/10 90 m
[Ns]
+11.0 +11.0 100 +10 +10 1003.7
штиль 0 10 км дымка 10/10 90 м +10.0 +10.0 100 +9 +9
штиль 0 5 км слабый дождь, дымка 10/10 90 m
[Ns]
+10.0 +10.0 100 +9 +9 1020.3 1003.4
штиль 0 16 км 10/10 150 м +10.0 +10.0 100 +9 +9 1003.7
штиль 0 14 км 10/10 210 м +10.0 +10.0 100 +9 +9
штиль 0 14 км 8/8 120 м +10.0 +10.0 100 +9 +9 1020.7 1003.7 +10.0 +10.6
штиль 0 16 км 8/8 180 м +10.0 +10.0 100 +9 +9 1003.7
штиль 0 16 км 8/8 120 м +9.0 +9.0 100 +8 +8 1003.7
штиль 0 16 км 2/2 120 м +9.0 +9.0 100 +8 +8 1004.0
штиль 0 16 км 2/2 180 м +9.4 +9.4 100 +8 +8 1020.8 1004.0
штиль 0 16 км 2/0 3000 m
[Ac]
+10.0 +9.4 96 +9 +9 1021.1 1004.0
З 2 16 км 10/0 3000 m
[Ac]
+11.7 +9.4 86 +11 +11 1021.8 1005.0
штиль 0 16 км 10/5 150 m
[Ac]
+11.1 +10.0 93 +10 +11
штиль 0 16 км 8/8 150 m
[Ac]
+11.0 +10.0 94 +10 +12
ЮВ 2 16 км 2/2 150 м +12.0 +10.0 88 +11 +16 1005.0
Ю 2 16 км 2/2 300 м +12.8 +10.6 86 +12 +17 1022.2 1005.0
Местоположение метеостанции Brookings Airport: широта 42.0744 долгота -124.2900 высота над уровнем моря 140 м.
В архиве по умолчанию представлена погода в Брукингсе за последние 1-2 суток. Обновление информации о фактической погоде в базе происходит ежечасно! Архивные данные за месяц целиком и за предыдущие месяцы Вы можете получить, выбрав интересующий диапазон дат из раскрывающегося списка и нажав кнопку "Ввод!".
Внимание! Архив погоды МЕТАР в базе сайта по станциям, не включенным в климатический монитор, хранится не более 60 дней. Нет смысла пытаться выбрать более раннюю дату.
*Определитесь, кто Вы:
Внимание! Время в таблицах - местное (без учета летнего времени). Для получения всемирного времени необходимо вычесть поправку, которая равна -8 ч.
Смотрите также архив погоды в соседних городах и на ближайших метеорологических станциях:
Партнеры нашего сайта:      
Пояснения к столбцам:
  • Ветер - указаны скорость ветра в м/с - средняя за 10 мин, порывы в срок и между сроками (в фигурных скобках) и направление, откуда дует ветер: С - северный,
  • СВ - северо-восточный, В - восточный, ЮВ - юго-восточный, Ю - южный, ЮЗ - юго-западный, З - западный, СЗ - северо-западный.
  • Видимость - горизонтальная дальность видимости в метрах или километрах. При видимости от 1 до 10 км при отсутствии осадков обычно наблюдается дымка, при ухудшении видимости до 1 км и менее - туман. В сухую погоду видимость может ухудшаться дымом, пылью или мглою.
  • Явления - указаны атмосферные явления, наблюдавшиеся в срок или в последний час перед сроком; фигурными скобками обозначены явления, наблюдавшиеся между сроками (за 1-3 часа до срока); квадратными скобками обозначены град или гололедные отложения с указанием их диаметра в мм.
  • Облачность - указаны через наклонную черту общая и нижняя облачность в баллах и высота нижней границы облаков в метрах; квадратными скобками обозначены формы облаков: Ci - перистые, Cs - перисто-слоистые, Cc - перисто-кучевые, Ac - высококучевые, As - высокослоистые, Sc - слоисто-кучевые, Ns - слоисто-дождевые, Cu - кучевые, Cb - кучево-дождевые. Подробнее классификацию облаков см. в Атласе облаков (PDF).
  • T - Температура воздуха - температура, измеренная на высоте 2 м над землей.
  • Td - Температура точки росы - температура, при понижении до которой содержащийся в воздухе водяной пар достигнет насыщения.
  • f - Относительная влажность воздуха - влажноcть воздуха, измеренная на высоте 2 м над землей.
  • Te - Эффективная температура - температура, которую ощущает одетый по сезону человек в тени. Характеристика душности погоды. При расчете учитывается влияние влажности воздуха и скорости ветра на теплоощущения человека.
  • Tes - Эффективная температура на солнце - температура, которую ощущает человек, с поправкой на солнечный нагрев. Характеристика знойности погоды. Зависит от высоты солнца над горизонтом, облачности и скорости ветра. Ночью, в пасмурную погоду, а также при ветре 12 м/с и более поправка равна нулю.
  • P - Атмосферное давление - приведенное к уровню моря атмосферное давление.
  • Po - Атмосферное давление - измеренное на уровне метеостанции атмосферное давление.
  • Tmin - Минимальная температура - минимум температуры воздуха на высоте 2 м над землей.
  • Tmax - Максимальная температура - максимум температуры воздуха на высоте 2 м над землей.
  • R - Количество осадков - Количество выпавших осадков за период времени, мм. При наведении курсора мыши на число - период времени, за который выпало указанное количество осадков.
  • R24 - Количество осадков - Количество выпавших осадков за 24 часа, мм.
  • S - Снежный покров - Высота снежного покрова, см. При наведении курсора мыши на число - состояние снежного покрова и степень покрытия местности в баллах.